YUNHAI 1-02

Satellite information

Favourite Embed

Satellite Type and Status

PAYLOADIN ORBIT

Key statistics

Satellite YUNHAI 1-02 at a glance.

Uptime

2111

Days in orbit

Revolutions

≈ 14.3

Per day

Orbit

SSO

Sun Synchronous Orbit

Inclination

98.4

Latest

Satellite identification and parameters

Extended collection of information and parameters for YUNHAI 1-02.

Object identification

Identified? True

Debris? False

Object name: YUNHAI 1-02

International designator: 2019-063A

Object number (NORAD): 44547

Object ID (CCSDS): 44547

Country: PEOPLES REPUBLIC OF CHINA (PRC)

Current information (Y/N): Y

RCS size: LARGE

Orbital parameters

Period: 100.502 minutes

Inclination: 98.4227 deg

SMA: 7160.518 km

Apoapsis: 786.298 km

Periapsis: 778.467 km

RAAN: 202.1711 deg

Eccentricy: 0.0005468

Argument of periapsis: 103.9526 deg

Mean anomaly: 256.2267 deg

Mean motion: 14.32801835 rev/day

Mean motion (dot): 0.00000245 rev/day2

B* drag term: 0.00010564 1/REarth

Two-line elements (TLE)

Creation date: July 5, 2025, 10:26 p.m.

Reference frame: TEME

Reference center: EARTH

Epoch: July 5, 2025, 8:42 p.m. UTC

TLE line 0: 0 YUNHAI 1-02

TLE line 1: 1 44547U 19063A 25186.86311128 .00000245 00000-0 10564-3 0 9995

TLE line 2: 2 44547 98.4227 202.1711 0005468 103.9526 256.2267 14.32801835302281

Live tracking on map

Real-time ground track for satellite YUNHAI 1-02.

In-orbit conjunctions

There are no conjunctions computed for YUNHAI 1-02, at the moment. Check back to stay up to date, as we update our databases every day.

Go to all conjunctions

Associated space launch

The Yunhai-1 satellite is designed for detecting environmental elements in the atmosphere and ocean, the space environment, disaster prevention and reduction, and scientific experimentation. It is made by the Shanghai Institute of Spaceflight Technology.

YUNHAI 1-02 was lifted into orbit during the mission ‘Long March 2D | Yunhai-1-02’, on board a Long March 2D space rocket.

The launch took place on Sept. 25, 2019, 12:54 a.m. from Launch Area 4 (SLS-2 / 603).

For more information about the launch, click the button.

Launch to space Long March 2D | Yunhai-1-02
Long March 2D | Yunhai-1-02

Agency: N/A

Status: Launch Successful

Launch date: Sept. 25, 2019, 12:54 a.m. UTC

Rocket: Long March 2D

Launch pad: Launch Area 4 (SLS-2 / 603)

Location: Jiuquan Satellite Launch Center, People's Republic of China

...

Latest news about this satellite

News about space launch
Breakup of China’s Yunhai-1 (02) satellite linked to space debris collision

U.S. space tracking has linked the breakup of Chinese satellite Yunhai-1 (02) to a collision with a small piece of debris from a Russian satellite launch, according to NASA.


Newsletter sign-up

Weekly statistics, charts and insights to help you stay on top of the space industry.